FENGYUN 1C DEB

Satellite information

Favourite Embed

Satellite Type and Status

DEBRISIN ORBIT

Key statistics

Satellite FENGYUN 1C DEB at a glance.

Uptime

9715

Days in orbit

Revolutions

≈ 14.4

Per day

Orbit

SSO

Sun Synchronous Orbit

Inclination

99.0

Latest

Satellite identification and parameters

Extended collection of information and parameters for FENGYUN 1C DEB.

Object identification

Identified? True

Debris? True

Object name: FENGYUN 1C DEB

International designator: 1999-025BSR

Object number (NORAD): 31385

Object ID (CCSDS): 31385

Country: PEOPLES REPUBLIC OF CHINA (PRC)

Current information (Y/N): Y

RCS size: SMALL

Orbital parameters

Period: 99.723 minutes

Inclination: 98.9541 deg

SMA: 7123.463 km

Apoapsis: 841.276 km

Periapsis: 649.379 km

RAAN: 75.6054 deg

Eccentricy: 0.01346934

Argument of periapsis: 59.1958 deg

Mean anomaly: 321.1651 deg

Mean motion: 14.43996087 rev/day

Mean motion (dot): 0.00000832 rev/day2

B* drag term: 0.00023196707 1/REarth

Two-line elements (TLE)

Creation date: Dec. 11, 2025, 7:14 p.m.

Reference frame: TEME

Reference center: EARTH

Epoch: Dec. 11, 2025, 12:25 p.m. UTC

TLE line 0: 0 FENGYUN 1C DEB

TLE line 1: 1 31385U 99025BSR 25345.51760567 .00000832 00000-0 23197-3 0 9999

TLE line 2: 2 31385 98.9541 75.6054 0134693 59.1958 321.1651 14.43996087985976

Live tracking on map

Real-time ground track for satellite FENGYUN 1C DEB.

In-orbit conjunctions

A list of the most updated potential collisions computed for object FENGYUN 1C DEB.

Target Orbit TCA Probability of collision Miss distance Type
SL-16 R/B LEO 2025-01-18 04:50:28 0.0003106758 360.0 (m) ROCKET BODY
FENGYUN 1C DEB SSO 2024-11-11 18:35:20 0.000182923 717.0 (m) DEBRIS

Associated space launch

Chinese polar orbiting meteorological satellite

FENGYUN 1C DEB was lifted into orbit during the mission ‘Long March 4B | Feng Yun 1C’, on board a Long March 4B space rocket.

The launch took place on May 10, 1999, 1:33 a.m. from Launch Complex 7.

For more information about the launch, click the button.

Launch to space Long March 4B | Feng Yun 1C
Long March 4B | Feng Yun 1C

Agency: N/A

Status: Launch Successful

Launch date: May 10, 1999, 1:33 a.m. UTC

Rocket: Long March 4B

Launch pad: Launch Complex 7

Location: Taiyuan Satellite Launch Center, People's Republic of China

...

Latest news about this satellite

There are no fresh news available about this satellite. Check back as we update our databases every day.


Newsletter sign-up

Weekly statistics, charts and insights to help you stay on top of the space industry.